Precipitable_Water
1.61 1.59 1.62 1.59 1.60 1.61 1.60 1.57 1.57 1.56 1.58 1.58 1.61 1.60 1.59 1.58 1.56 1.55 1.57 1.58 1.59 1.58 1.61 1.64 1.67 1.70 1.72 1.71 1.73 1.75 1.78 1.82 1.83 1.87 1.92 1.98 1.99 1.97 1.97 2.01 2.02 2.04 2.07 2.02 1.97 1.93 1.91 1.87 1.73 1.60 1.51 1.50 1.52 1.50 1.41 1.42 1.51 1.50 1.48 1.49 1.50 1.48 1.46 1.42 1.40 1.41 1.43 1.45 1.50 1.55 1.58 1.60 1.61 1.63 1.65 1.67 1.68 1.73 1.79 1.83 1.86 1.89 1.93 1.96 1.98
1.64 1.65 1.61 1.57 1.58 1.59 1.56 1.54 1.52 1.55 1.54 1.50 1.57 1.58 1.59 1.61 1.59 1.53 1.50 1.50 1.51 1.54 1.55 1.52 1.54 1.56 1.60 1.64 1.71 1.78 1.79 1.79 1.79 1.81 1.87 1.94 1.99 1.98 1.96 1.95 1.99 2.06 2.08 2.07 2.01 1.97 1.90 1.90 1.86 1.72 1.58 1.50 1.49 1.50 1.46 1.36 1.43 1.53 1.51 1.48 1.50 1.51 1.49 1.48 1.45 1.42 1.42 1.44 1.47 1.52 1.56 1.58 1.60 1.64 1.66 1.69 1.72 1.76 1.80 1.82 1.83 1.86 1.89 1.93 1.93
1.71 1.68 1.64 1.61 1.58 1.56 1.53 1.53 1.49 1.50 1.51 1.50 1.60 1.61 1.61 1.60 1.59 1.56 1.50 1.46 1.45 1.50 1.50 1.49 1.50 1.51 1.51 1.51 1.60 1.75 1.82 1.87 1.86 1.84 1.83 1.87 1.93 1.95 1.95 1.94 1.96 1.99 2.02 2.02 1.99 1.96 1.91 1.87 1.87 1.84 1.71 1.56 1.49 1.48 1.50 1.41 1.33 1.44 1.54 1.51 1.49 1.50 1.51 1.51 1.51 1.49 1.46 1.44 1.45 1.49 1.53 1.56 1.59 1.65 1.67 1.70 1.74 1.78 1.80 1.82 1.85 1.85 1.86 1.89 1.91
1.75 1.71 1.67 1.62 1.56 1.52 1.50 1.46 1.45 1.49 1.52 1.52 1.54 1.58 1.56 1.55 1.56 1.57 1.57 1.53 1.48 1.45 1.48 1.46 1.46 1.48 1.48 1.45 1.51 1.61 1.74 1.83 1.84 1.86 1.84 1.81 1.84 1.88 1.92 1.94 1.94 1.96 1.98 2.00 2.04 2.03 1.98 1.93 1.88 1.84 1.82 1.71 1.56 1.47 1.47 1.47 1.36 1.32 1.45 1.52 1.53 1.51 1.49 1.49 1.51 1.53 1.53 1.50 1.47 1.48 1.51 1.56 1.60 1.66 1.69 1.72 1.76 1.78 1.80 1.81 1.83 1.85 1.84 1.84 1.86
1.82 1.79 1.77 1.70 1.64 1.56 1.49 1.45 1.46 1.49 1.51 1.51 1.53 1.56 1.56 1.56 1.52 1.56 1.54 1.54 1.50 1.46 1.46 1.44 1.41 1.43 1.46 1.44 1.44 1.45 1.60 1.75 1.80 1.82 1.82 1.81 1.82 1.84 1.87 1.91 1.94 1.94 1.97 2.03 2.06 2.06 2.04 2.01 1.93 1.90 1.84 1.80 1.71 1.58 1.48 1.46 1.43 1.33 1.34 1.46 1.54 1.55 1.52 1.49 1.48 1.51 1.54 1.54 1.53 1.52 1.53 1.57 1.62 1.66 1.70 1.73 1.77 1.78 1.79 1.79 1.80 1.81 1.82 1.83 1.82
1.86 1.84 1.81 1.73 1.71 1.63 1.57 1.52 1.50 1.51 1.49 1.48 1.49 1.55 1.52 1.50 1.50 1.64 1.60 1.48 1.44 1.44 1.41 1.37 1.43 1.47 1.45 1.46 1.44 1.40 1.45 1.53 1.67 1.76 1.79 1.77 1.77 1.77 1.79 1.84 1.89 1.92 1.96 2.02 2.07 2.09 2.10 2.05 1.98 1.95 1.92 1.85 1.78 1.71 1.59 1.47 1.43 1.38 1.30 1.34 1.47 1.55 1.56 1.52 1.50 1.49 1.52 1.54 1.55 1.55 1.55 1.56 1.60 1.64 1.69 1.72 1.76 1.77 1.78 1.78 1.77 1.77 1.77 1.78 1.78
1.82 1.75 1.67 1.64 1.61 1.60 1.64 1.69 1.61 1.47 1.39 1.43 1.45 1.49 1.49 1.49 1.61 1.50 1.39 1.41 1.50 1.53 1.41 1.35 1.36 1.38 1.41 1.44 1.42 1.44 1.43 1.41 1.46 1.55 1.66 1.73 1.76 1.74 1.76 1.78 1.81 1.86 1.91 1.96 2.03 2.07 2.07 2.08 2.03 1.95 1.95 1.91 1.83 1.77 1.71 1.60 1.46 1.39 1.34 1.27 1.34 1.48 1.55 1.56 1.53 1.50 1.49 1.53 1.54 1.55 1.56 1.56 1.57 1.61 1.66 1.70 1.72 1.75 1.77 1.77 1.76 1.74 1.73 1.72 1.72
1.80 1.79 1.73 1.72 1.68 1.61 1.56 1.57 1.48 1.40 1.37 1.38 1.40 1.35 1.37 1.38 1.43 1.44 1.37 1.39 1.44 1.45 1.46 1.39 1.35 1.32 1.35 1.37 1.42 1.45 1.40 1.37 1.38 1.43 1.53 1.64 1.69 1.73 1.74 1.75 1.77 1.80 1.86 1.91 1.97 2.02 2.03 2.03 2.04 2.03 1.99 1.96 1.90 1.82 1.75 1.70 1.61 1.46 1.37 1.31 1.25 1.33 1.47 1.55 1.56 1.53 1.51 1.50 1.53 1.55 1.56 1.57 1.58 1.58 1.61 1.66 1.70 1.72 1.73 1.73 1.72 1.71 1.70 1.69 1.67
1.83 1.81 1.73 1.68 1.62 1.46 1.37 1.38 1.39 1.36 1.32 1.32 1.32 1.34 1.33 1.34 1.41 1.49 1.47 1.40 1.46 1.44 1.41 1.40 1.38 1.36 1.37 1.37 1.40 1.43 1.41 1.42 1.42 1.42 1.48 1.50 1.59 1.69 1.72 1.73 1.76 1.81 1.84 1.87 1.91 1.96 1.99 1.99 2.00 2.06 2.02 1.96 1.95 1.90 1.81 1.74 1.69 1.63 1.48 1.35 1.28 1.23 1.33 1.47 1.54 1.54 1.52 1.51 1.51 1.54 1.56 1.58 1.61 1.62 1.64 1.66 1.68 1.69 1.70 1.69 1.68 1.68 1.67 1.66 1.67
1.63 1.64 1.56 1.48 1.38 1.29 1.28 1.29 1.28 1.27 1.25 1.27 1.31 1.39 1.40 1.35 1.27 1.37 1.43 1.41 1.40 1.40 1.40 1.46 1.45 1.43 1.48 1.49 1.45 1.37 1.32 1.33 1.39 1.45 1.41 1.38 1.46 1.59 1.70 1.74 1.77 1.76 1.79 1.85 1.87 1.88 1.91 1.97 1.99 2.02 2.04 2.01 1.97 1.99 1.93 1.84 1.77 1.71 1.66 1.54 1.38 1.25 1.22 1.32 1.45 1.51 1.51 1.51 1.51 1.52 1.54 1.58 1.61 1.63 1.66 1.67 1.68 1.68 1.68 1.68 1.68 1.67 1.67 1.67 1.67
1.34 1.32 1.25 1.21 1.18 1.16 1.15 1.18 1.24 1.23 1.21 1.16 1.11 1.11 1.13 1.14 1.06 1.05 1.18 1.25 1.29 1.36 1.40 1.46 1.44 1.42 1.41 1.46 1.44 1.33 1.29 1.31 1.36 1.41 1.40 1.35 1.34 1.45 1.61 1.66 1.69 1.73 1.74 1.75 1.78 1.80 1.85 1.90 1.92 1.94 1.97 2.01 2.03 2.01 2.00 1.96 1.90 1.81 1.73 1.70 1.62 1.45 1.27 1.22 1.31 1.42 1.47 1.48 1.49 1.50 1.51 1.54 1.59 1.61 1.63 1.64 1.65 1.66 1.66 1.66 1.68 1.67 1.68 1.68 1.68
1.17 1.13 1.08 1.08 1.08 1.10 1.13 1.20 1.20 1.13 1.03 0.94 0.94 0.96 0.96 0.99 1.03 1.01 0.96 1.04 1.16 1.21 1.33 1.37 1.36 1.33 1.33 1.40 1.40 1.35 1.33 1.33 1.32 1.33 1.37 1.38 1.37 1.45 1.52 1.64 1.67 1.64 1.64 1.68 1.73 1.75 1.77 1.83 1.89 1.90 1.94 1.96 2.00 2.02 2.02 2.00 1.95 1.90 1.82 1.74 1.71 1.67 1.53 1.32 1.23 1.28 1.37 1.43 1.46 1.46 1.47 1.49 1.52 1.56 1.59 1.60 1.60 1.60 1.61 1.63 1.64 1.65 1.67 1.68 1.68
1.14 1.11 1.11 1.13 1.15 1.17 1.15 1.13 1.13 1.06 0.98 0.92 0.91 0.93 1.02 1.11 1.09 1.06 0.95 0.91 0.99 1.18 1.27 1.31 1.20 1.14 1.24 1.24 1.24 1.31 1.31 1.32 1.31 1.34 1.38 1.44 1.47 1.45 1.52 1.59 1.64 1.65 1.63 1.62 1.63 1.69 1.72 1.73 1.80 1.85 1.88 1.97 2.02 2.04 2.07 2.07 2.03 1.96 1.91 1.82 1.74 1.71 1.70 1.59 1.38 1.25 1.26 1.33 1.39 1.42 1.43 1.43 1.44 1.48 1.51 1.55 1.57 1.56 1.56 1.58 1.60 1.59 1.60 1.62 1.64
1.15 1.16 1.14 1.10 1.08 1.11 1.10 1.04 1.00 0.93 0.89 0.91 0.95 1.00 1.03 1.06 1.09 1.02 1.10 0.99 0.98 1.16 1.27 1.22 1.07 0.99 0.93 0.94 1.00 1.12 1.19 1.24 1.28 1.35 1.41 1.46 1.50 1.49 1.49 1.52 1.57 1.67 1.72 1.65 1.60 1.60 1.64 1.69 1.72 1.77 1.80 1.86 1.98 2.06 2.08 2.08 2.04 2.00 1.98 1.94 1.86 1.79 1.73 1.71 1.65 1.47 1.31 1.27 1.30 1.34 1.38 1.39 1.39 1.40 1.43 1.47 1.50 1.52 1.52 1.53 1.54 1.55 1.56 1.56 1.56
1.17 1.12 1.10 1.11 1.11 1.10 1.03 0.99 0.91 0.89 0.88 0.92 1.00 1.03 1.10 1.13 1.17 1.11 1.09 1.16 1.13 1.24 1.25 1.26 1.05 1.14 1.10 0.92 0.83 0.84 1.05 1.14 1.31 1.33 1.33 1.33 1.36 1.38 1.42 1.42 1.46 1.55 1.66 1.71 1.67 1.54 1.51 1.54 1.60 1.69 1.75 1.78 1.84 1.96 2.05 2.09 2.07 2.01 2.00 1.99 1.95 1.90 1.82 1.76 1.72 1.68 1.56 1.37 1.29 1.29 1.31 1.33 1.35 1.36 1.36 1.39 1.42 1.44 1.46 1.48 1.49 1.50 1.51 1.51 1.50
1.12 1.12 1.12 1.09 1.05 0.99 0.95 0.90 0.87 0.94 0.95 0.96 1.02 1.06 1.13 1.17 1.22 1.23 1.19 1.04 1.08 1.12 1.27 1.28 1.21 1.09 0.84 0.89 0.91 0.88 0.74 0.92 1.03 1.15 1.25 1.28 1.30 1.31 1.34 1.35 1.41 1.49 1.53 1.53 1.62 1.69 1.65 1.62 1.58 1.60 1.68 1.76 1.82 1.91 2.01 2.03 2.04 2.04 1.98 1.94 1.93 1.94 1.90 1.85 1.77 1.71 1.69 1.63 1.45 1.32 1.30 1.30 1.31 1.32 1.33 1.33 1.35 1.37 1.39 1.41 1.43 1.44 1.45 1.46 1.46
1.07 1.04 0.99 0.93 0.91 0.89 0.87 0.90 0.90 0.94 1.01 1.00 1.01 1.05 1.12 1.18 1.22 1.18 1.15 1.07 1.02 1.09 1.21 1.28 1.22 1.22 1.02 0.89 0.84 0.78 0.80 0.91 0.95 0.95 1.17 1.15 1.21 1.28 1.31 1.31 1.29 1.28 1.31 1.39 1.54 1.62 1.65 1.66 1.65 1.63 1.68 1.79 1.80 1.79 1.90 2.05 2.05 2.03 2.03 1.97 1.92 1.92 1.94 1.92 1.86 1.79 1.72 1.70 1.67 1.53 1.37 1.32 1.31 1.30 1.30 1.30 1.30 1.31 1.32 1.34 1.36 1.39 1.40 1.41 1.42
0.89 0.84 0.81 0.81 0.85 0.92 0.93 0.94 0.93 0.97 1.02 1.02 1.05 1.07 1.09 1.12 1.19 1.20 1.16 1.19 1.13 1.09 1.07 1.23 1.22 1.18 1.20 1.22 1.12 0.87 0.83 0.91 0.85 0.67 1.02 1.14 1.16 1.23 1.30 1.34 1.32 1.26 1.23 1.24 1.32 1.46 1.59 1.62 1.67 1.66 1.69 1.75 1.80 1.82 1.79 1.87 2.03 2.02 2.00 1.99 1.96 1.93 1.92 1.94 1.90 1.87 1.83 1.78 1.73 1.70 1.59 1.42 1.33 1.32 1.30 1.29 1.28 1.29 1.29 1.29 1.30 1.32 1.35 1.37 1.38
0.76 0.79 0.81 0.88 0.92 0.97 0.97 0.97 0.97 0.99 1.02 1.03 1.03 1.04 1.07 1.12 1.18 1.17 1.15 1.16 1.15 1.02 1.03 1.05 1.13 1.17 1.23 1.24 1.22 1.22 1.17 0.98 0.84 0.90 0.72 0.88 1.02 1.05 1.11 1.22 1.28 1.29 1.27 1.27 1.27 1.30 1.40 1.51 1.61 1.68 1.74 1.81 1.80 1.80 1.85 1.90 1.90 1.92 1.99 1.96 1.96 1.95 1.93 1.92 1.93 1.93 1.89 1.84 1.80 1.75 1.72 1.64 1.46 1.34 1.32 1.32 1.31 1.32 1.33 1.32 1.30 1.28 1.30 1.32 1.34
0.81 0.83 0.86 0.91 0.94 0.97 1.00 0.99 0.99 1.00 1.01 1.02 1.05 1.08 1.11 1.16 1.18 1.17 1.16 1.15 1.12 1.04 1.00 1.06 0.96 1.01 1.18 1.17 1.20 1.24 1.25 1.21 1.18 1.00 0.90 0.78 0.79 0.99 1.05 1.07 1.12 1.18 1.22 1.24 1.28 1.30 1.29 1.34 1.41 1.55 1.68 1.76 1.80 1.84 1.89 1.91 1.93 1.96 1.96 1.92 1.93 1.94 1.95 1.94 1.91 1.90 1.90 1.89 1.85 1.81 1.77 1.74 1.67 1.50 1.35 1.33 1.36 1.37 1.38 1.39 1.38 1.36 1.33 1.32 1.33
0.90 0.90 0.93 0.95 0.99 0.99 1.00 0.99 0.98 0.98 1.01 1.07 1.11 1.10 1.08 1.08 1.10 1.13 1.13 1.15 1.17 1.16 1.09 1.06 1.08 1.04 1.07 1.10 1.14 1.12 1.15 1.17 1.17 1.17 0.99 0.88 0.86 0.88 0.90 1.01 0.99 1.02 1.08 1.16 1.20 1.25 1.27 1.28 1.33 1.39 1.51 1.64 1.73 1.78 1.86 1.89 1.87 1.89 1.94 1.94 1.94 1.96 1.97 1.96 1.95 1.92 1.90 1.90 1.89 1.86 1.82 1.79 1.75 1.71 1.55 1.38 1.35 1.39 1.41 1.41 1.42 1.43 1.42 1.40 1.38
0.85 0.87 0.88 0.96 0.99 1.02 1.01 0.99 0.98 0.98 0.99 1.04 1.09 1.09 1.11 1.12 1.15 1.16 1.15 1.10 1.16 1.13 1.07 1.08 1.10 1.11 1.10 1.07 1.02 1.04 1.04 1.03 1.05 1.02 1.02 1.00 0.83 0.84 0.92 0.90 0.83 0.90 1.01 1.02 1.08 1.14 1.20 1.26 1.27 1.30 1.37 1.48 1.61 1.71 1.81 1.85 1.87 1.87 1.90 1.94 1.95 1.97 2.02 2.03 2.01 1.99 1.95 1.91 1.88 1.85 1.83 1.82 1.79 1.77 1.72 1.60 1.44 1.39 1.42 1.44 1.44 1.45 1.46 1.47 1.46
0.84 0.83 0.89 0.99 1.00 1.02 1.01 1.01 1.00 0.99 1.01 1.02 1.04 1.10 1.13 1.15 1.16 1.13 1.09 1.07 1.09 1.11 1.12 1.13 1.14 1.12 1.11 1.08 1.03 1.00 0.95 0.90 0.93 0.97 0.96 0.91 0.90 0.88 0.91 0.94 0.91 0.87 0.90 0.97 1.00 1.05 1.11 1.17 1.21 1.26 1.31 1.36 1.45 1.57 1.70 1.82 1.87 1.87 1.88 1.92 1.91 1.90 1.96 2.01 2.02 2.02 2.01 1.99 1.97 1.89 1.84 1.82 1.82 1.81 1.79 1.74 1.65 1.51 1.43 1.44 1.47 1.46 1.46 1.48 1.50
0.86 0.86 0.93 0.99 0.99 1.00 1.02 0.99 0.97 1.00 1.01 1.04 1.08 1.12 1.16 1.17 1.13 1.09 1.09 1.12 1.14 1.12 1.11 1.07 1.06 1.05 1.06 1.09 1.06 1.07 1.06 1.02 1.03 1.04 1.00 0.98 0.94 0.86 0.83 0.86 0.86 0.87 0.90 0.90 0.92 0.93 0.97 1.01 1.09 1.18 1.27 1.33 1.37 1.45 1.55 1.70 1.81 1.85 1.85 1.85 1.86 1.88 1.93 1.99 2.01 2.02 2.01 1.99 1.98 1.96 1.90 1.84 1.82 1.83 1.85 1.80 1.76 1.70 1.59 1.50 1.48 1.49 1.49 1.47 1.48
0.81 0.86 0.93 0.98 1.00 0.97 0.95 0.94 0.96 1.00 1.04 1.07 1.10 1.13 1.15 1.15 1.12 1.10 1.11 1.10 1.10 1.10 1.06 1.03 1.02 0.99 1.01 1.07 1.07 1.06 1.03 1.08 1.08 1.04 1.06 1.04 0.94 0.80 0.81 0.86 0.74 0.74 0.81 0.86 0.83 0.88 0.91 0.95 1.02 1.08 1.14 1.26 1.34 1.37 1.45 1.56 1.68 1.78 1.83 1.83 1.82 1.82 1.85 1.92 1.98 1.99 1.98 1.96 1.95 1.95 1.93 1.88 1.82 1.82 1.84 1.84 1.82 1.79 1.74 1.65 1.56 1.54 1.55 1.52 1.48
0.79 0.83 0.91 0.94 0.94 0.93 0.94 0.97 0.98 1.01 1.04 1.08 1.10 1.12 1.14 1.13 1.11 1.08 1.07 1.09 1.11 1.09 1.05 1.03 1.04 1.04 1.07 1.03 1.02 1.01 1.02 1.07 1.08 1.08 1.01 0.94 0.85 0.79 0.76 0.77 0.78 0.71 0.78 0.78 0.81 0.74 0.80 0.88 0.96 1.01 1.06 1.13 1.25 1.35 1.39 1.47 1.59 1.73 1.83 1.85 1.84 1.81 1.80 1.84 1.87 1.88 1.91 1.93 1.94 1.94 1.94 1.91 1.87 1.83 1.81 1.83 1.84 1.81 1.79 1.75 1.68 1.61 1.59 1.58 1.55
0.81 0.88 0.93 0.93 0.93 0.94 0.97 0.95 0.97 0.99 1.02 1.05 1.09 1.10 1.11 1.11 1.09 1.07 1.07 1.08 1.08 1.08 1.05 1.03 1.01 1.04 1.05 1.04 1.02 1.02 1.01 1.05 1.08 1.04 1.00 0.94 0.87 0.84 0.79 0.67 0.67 0.70 0.67 0.72 0.72 0.69 0.69 0.80 0.90 0.93 0.99 1.06 1.14 1.23 1.31 1.35 1.42 1.54 1.68 1.80 1.84 1.83 1.79 1.79 1.82 1.82 1.81 1.86 1.91 1.93 1.93 1.92 1.90 1.86 1.81 1.81 1.82 1.83 1.81 1.78 1.73 1.67 1.63 1.62 1.60
0.86 0.91 0.93 0.93 0.93 0.93 0.94 0.94 0.97 0.98 1.00 1.02 1.05 1.06 1.08 1.07 1.05 1.06 1.02 1.09 1.06 1.04 1.05 1.06 1.06 1.07 1.07 1.08 1.05 0.99 1.00 1.02 1.03 0.99 0.96 0.94 0.91 0.91 0.87 0.79 0.67 0.58 0.64 0.60 0.61 0.61 0.72 0.68 0.77 0.91 0.96 1.00 1.05 1.11 1.20 1.27 1.30 1.38 1.52 1.66 1.76 1.80 1.79 1.78 1.79 1.79 1.77 1.78 1.84 1.90 1.90 1.91 1.91 1.88 1.84 1.81 1.81 1.82 1.80 1.79 1.76 1.72 1.66 1.62 1.60
0.86 0.91 0.90 0.91 0.90 0.87 0.86 0.87 0.90 0.93 0.96 1.01 1.03 1.05 1.07 1.06 1.05 1.05 1.04 1.08 1.08 1.06 1.08 1.07 1.09 1.10 1.08 1.08 1.05 1.02 0.99 1.01 1.01 0.96 0.91 0.90 0.89 0.88 0.88 0.80 0.78 0.67 0.59 0.53 0.53 0.54 0.61 0.70 0.63 0.73 0.89 0.96 0.98 1.04 1.08 1.14 1.25 1.31 1.37 1.51 1.65 1.73 1.77 1.77 1.80 1.83 1.81 1.77 1.78 1.84 1.87 1.86 1.88 1.88 1.86 1.83 1.81 1.81 1.80 1.77 1.75 1.73 1.70 1.65 1.61
0.88 0.92 0.92 0.92 0.91 0.94 0.91 0.89 0.86 0.85 0.89 0.94 0.98 1.00 1.02 1.03 1.06 1.07 1.09 1.11 1.09 1.11 1.11 1.10 1.08 1.09 1.08 1.09 1.10 1.06 1.06 1.04 1.02 0.98 0.90 0.84 0.82 0.82 0.83 0.85 0.84 0.70 0.67 0.58 0.54 0.60 0.57 0.66 0.69 0.67 0.78 0.87 0.97 1.00 1.05 1.06 1.15 1.28 1.31 1.36 1.51 1.67 1.73 1.76 1.78 1.82 1.83 1.80 1.79 1.82 1.87 1.86 1.87 1.88 1.87 1.87 1.85 1.83 1.81 1.78 1.75 1.72 1.71 1.69 1.64
0.91 0.92 0.92 0.92 0.95 0.95 0.95 0.93 0.90 0.87 0.89 0.90 0.92 0.94 0.98 1.01 1.07 1.08 1.11 1.12 1.09 1.06 1.08 1.06 1.08 1.08 1.07 1.05 1.09 1.09 1.08 1.06 1.06 1.05 0.97 0.86 0.81 0.81 0.80 0.82 0.81 0.80 0.74 0.70 0.57 0.62 0.68 0.60 0.66 0.76 0.78 0.83 0.92 0.96 1.00 1.07 1.10 1.20 1.29 1.33 1.40 1.51 1.62 1.68 1.72 1.76 1.80 1.81 1.78 1.81 1.86 1.87 1.85 1.84 1.84 1.87 1.87 1.85 1.83 1.80 1.76 1.72 1.70 1.70 1.69
0.93 0.94 0.92 0.94 0.96 0.95 0.95 0.96 0.95 0.95 0.96 0.99 1.00 0.99 0.98 1.00 1.05 1.07 1.09 1.10 1.07 1.02 1.01 1.07 1.09 1.11 1.08 1.05 1.07 1.08 1.09 1.07 1.06 1.06 1.03 0.96 0.85 0.79 0.78 0.76 0.77 0.79 0.80 0.74 0.65 0.59 0.70 0.68 0.69 0.72 0.81 0.85 0.90 0.91 0.94 1.01 1.11 1.15 1.22 1.32 1.36 1.44 1.52 1.60 1.66 1.69 1.74 1.78 1.76 1.77 1.82 1.85 1.84 1.82 1.84 1.87 1.89 1.88 1.85 1.81 1.76 1.72 1.70 1.68 1.69
0.91 0.91 0.93 0.94 0.96 0.97 0.96 0.97 0.96 0.96 0.98 1.01 1.04 1.03 1.02 1.02 1.05 1.07 1.09 1.09 1.05 1.02 1.01 1.02 1.07 1.08 1.06 1.04 1.05 1.08 1.10 1.05 1.04 1.04 1.02 1.00 0.94 0.81 0.78 0.77 0.76 0.80 0.80 0.76 0.67 0.63 0.68 0.75 0.73 0.73 0.80 0.89 0.87 0.93 0.91 0.96 1.02 1.12 1.16 1.25 1.36 1.41 1.48 1.56 1.64 1.69 1.72 1.76 1.77 1.76 1.78 1.81 1.82 1.81 1.84 1.87 1.89 1.87 1.85 1.80 1.74 1.71 1.69 1.67 1.66
0.91 0.92 0.93 0.94 0.96 0.98 0.98 0.98 0.98 0.99 1.01 1.02 1.03 1.03 1.02 1.03 1.02 1.06 1.07 1.07 1.03 1.01 1.01 0.99 1.02 1.03 1.01 0.98 0.99 1.03 1.07 1.01 0.97 0.94 0.94 0.94 0.93 0.87 0.78 0.77 0.78 0.79 0.85 0.78 0.74 0.68 0.62 0.69 0.69 0.76 0.79 0.90 0.85 0.94 0.92 0.93 0.98 1.08 1.13 1.16 1.27 1.40 1.46 1.54 1.60 1.66 1.72 1.76 1.77 1.75 1.74 1.76 1.77 1.77 1.80 1.86 1.88 1.87 1.85 1.78 1.73 1.72 1.71 1.69 1.66
0.94 0.94 0.94 0.95 0.96 0.99 1.00 1.01 1.01 1.01 1.02 1.02 1.04 1.03 1.03 1.01 0.98 1.01 1.05 1.03 1.02 1.00 1.00 0.99 0.97 0.97 0.95 0.96 0.97 0.99 1.01 0.95 0.93 0.92 0.93 0.91 0.93 0.91 0.88 0.87 0.87 0.90 0.92 0.91 0.83 0.73 0.69 0.68 0.74 0.73 0.78 0.86 0.88 0.89 0.96 1.00 1.04 1.08 1.10 1.16 1.19 1.31 1.43 1.50 1.56 1.62 1.67 1.72 1.76 1.73 1.70 1.72 1.75 1.76 1.80 1.86 1.91 1.88 1.84 1.76 1.72 1.72 1.71 1.71 1.68
0.91 0.95 0.97 0.96 0.97 0.97 0.97 0.98 0.99 0.99 1.01 1.02 1.02 1.01 1.01 0.99 0.96 0.96 1.01 1.02 1.03 1.04 1.02 0.98 0.94 0.91 0.90 0.90 0.91 0.93 0.94 0.91 0.90 0.91 0.94 0.95 0.96 0.98 0.98 0.98 0.98 0.97 0.98 0.98 0.95 0.86 0.79 0.70 0.72 0.74 0.80 0.85 0.89 0.95 1.01 1.04 1.06 1.07 1.12 1.19 1.25 1.25 1.35 1.45 1.49 1.55 1.63 1.68 1.73 1.73 1.70 1.70 1.73 1.76 1.79 1.85 1.90 1.91 1.84 1.75 1.70 1.69 1.70 1.69 1.68
0.91 0.92 0.93 0.95 0.94 0.94 0.93 0.93 0.95 0.97 0.99 1.01 0.99 1.00 1.02 1.02 0.99 1.00 1.04 1.06 1.06 1.06 1.02 0.96 0.90 0.87 0.87 0.88 0.89 0.91 0.94 0.92 0.93 0.94 0.97 0.96 0.96 0.96 0.94 0.95 0.94 0.96 0.97 0.96 0.94 0.91 0.82 0.75 0.74 0.79 0.86 0.90 0.93 0.95 1.02 1.02 1.04 1.09 1.13 1.16 1.22 1.25 1.27 1.38 1.45 1.51 1.58 1.65 1.69 1.71 1.69 1.68 1.70 1.72 1.76 1.80 1.87 1.89 1.83 1.75 1.70 1.68 1.67 1.66 1.63
0.89 0.91 0.92 0.93 0.94 0.93 0.94 0.96 0.96 0.95 0.97 0.98 0.97 0.98 0.99 1.02 1.02 1.05 1.09 1.10 1.09 1.05 0.98 0.92 0.89 0.89 0.89 0.91 0.93 0.96 0.96 0.94 0.94 0.96 0.99 0.98 0.98 0.96 0.95 0.96 0.98 1.00 0.97 0.94 0.93 0.89 0.85 0.81 0.79 0.77 0.85 0.87 0.89 0.93 1.02 1.08 1.05 1.03 1.07 1.13 1.21 1.26 1.26 1.27 1.36 1.47 1.55 1.61 1.66 1.69 1.69 1.67 1.67 1.67 1.70 1.76 1.83 1.88 1.84 1.75 1.69 1.67 1.65 1.64 1.62
0.91 0.91 0.92 0.91 0.93 0.92 0.93 0.92 0.91 0.91 0.92 0.94 0.95 0.96 0.98 1.01 1.04 1.07 1.10 1.10 1.07 1.03 0.97 0.95 0.94 0.94 0.94 0.95 0.96 0.98 0.97 0.97 0.96 0.96 0.97 0.97 0.98 0.97 0.99 1.00 1.04 1.03 0.96 0.92 0.91 0.87 0.85 0.82 0.80 0.83 0.85 0.91 0.93 0.91 1.02 1.12 1.12 1.12 1.07 1.06 1.06 1.20 1.27 1.26 1.25 1.39 1.50 1.56 1.64 1.67 1.66 1.65 1.64 1.63 1.64 1.71 1.79 1.86 1.86 1.80 1.73 1.67 1.62 1.61 1.60
0.94 0.94 0.92 0.91 0.91 0.91 0.90 0.90 0.90 0.91 0.91 0.92 0.94 0.96 0.99 1.02 1.07 1.09 1.10 1.07 1.03 1.01 1.00 1.01 0.99 0.97 0.96 0.96 0.98 0.99 1.00 1.01 1.01 1.00 0.98 0.95 0.97 0.96 1.01 1.03 1.04 1.00 0.94 0.92 0.89 0.87 0.85 0.82 0.79 0.82 0.88 0.87 0.92 1.02 1.08 1.10 1.07 1.08 1.13 1.09 1.01 1.05 1.14 1.22 1.25 1.28 1.42 1.52 1.55 1.61 1.65 1.66 1.64 1.63 1.62 1.70 1.77 1.81 1.82 1.81 1.79 1.71 1.60 1.57 1.57
0.92 0.93 0.95 0.94 0.93 0.92 0.93 0.91 0.90 0.92 0.92 0.94 0.96 0.98 1.00 1.04 1.08 1.08 1.07 1.05 1.03 1.01 1.01 1.01 0.99 0.97 0.96 0.97 1.00 1.02 1.04 1.04 1.03 1.01 1.01 1.01 0.99 0.95 0.99 1.03 1.02 0.99 0.94 0.92 0.90 0.88 0.86 0.82 0.80 0.88 0.88 0.87 0.91 0.97 1.00 1.03 1.03 1.03 1.11 1.14 1.08 1.11 1.17 1.17 1.20 1.30 1.40 1.46 1.53 1.58 1.58 1.62 1.61 1.60 1.58 1.62 1.72 1.77 1.78 1.78 1.76 1.68 1.58 1.54 1.54
0.92 0.95 0.94 0.96 0.96 0.95 0.93 0.92 0.92 0.94 0.96 0.97 0.98 1.01 1.04 1.05 1.05 1.05 1.05 1.04 1.04 1.03 1.01 0.99 0.96 0.96 0.97 0.98 1.00 1.02 1.02 1.02 1.02 1.02 1.02 1.03 1.05 1.05 1.03 1.03 1.01 0.98 0.95 0.91 0.89 0.88 0.86 0.82 0.83 0.86 0.86 0.86 0.89 0.96 1.02 1.09 1.15 1.17 1.14 1.13 1.07 1.11 1.13 1.12 1.16 1.21 1.35 1.44 1.44 1.45 1.52 1.63 1.63 1.61 1.61 1.57 1.67 1.76 1.75 1.75 1.70 1.60 1.52 1.50 1.49
0.91 0.92 0.94 0.94 0.94 0.94 0.93 0.93 0.94 0.97 0.98 0.99 1.00 1.02 1.05 1.08 1.07 1.05 1.03 1.04 1.06 1.04 1.03 1.00 0.96 0.94 0.96 1.00 1.01 1.03 1.03 1.02 1.01 1.01 1.01 1.01 1.03 1.04 1.06 1.05 1.04 1.00 0.94 0.91 0.90 0.91 0.89 0.88 0.90 0.90 0.89 0.89 0.91 0.96 1.00 1.04 1.09 1.11 1.14 1.15 1.13 1.12 1.07 1.02 0.96 1.10 1.34 1.39 1.40 1.41 1.44 1.59 1.64 1.55 1.57 1.58 1.64 1.72 1.75 1.72 1.70 1.61 1.52 1.50 1.49
0.90 0.93 0.94 0.94 0.94 0.94 0.93 0.95 0.97 0.99 1.00 1.02 1.00 1.01 1.03 1.06 1.09 1.08 1.07 1.05 1.05 1.03 1.02 1.01 1.01 1.00 0.99 1.00 1.02 1.03 1.02 1.00 0.99 0.98 0.98 0.98 0.98 0.99 1.00 1.00 1.01 1.03 1.05 1.00 0.94 0.92 0.93 0.91 0.90 0.92 0.94 0.94 0.94 0.97 0.98 1.00 1.02 1.06 1.10 1.15 1.14 1.11 1.08 1.05 1.04 1.00 1.21 1.43 1.37 1.38 1.40 1.57 1.64 1.58 1.53 1.56 1.63 1.67 1.69 1.68 1.67 1.63 1.55 1.50 1.47
0.93 0.94 0.96 0.98 0.98 1.00 1.00 0.99 0.98 1.00 1.02 1.06 1.04 1.03 1.04 1.05 1.07 1.09 1.08 1.07 1.05 1.03 1.03 1.02 1.02 1.04 1.03 1.02 1.01 1.02 1.03 1.01 1.00 0.99 0.98 0.97 0.98 0.99 0.99 1.00 1.01 1.02 1.04 1.06 1.09 1.08 1.05 0.99 0.96 0.96 0.99 1.00 0.98 0.98 1.01 1.02 1.09 1.06 1.08 1.08 1.13 1.15 1.14 1.10 1.09 1.09 1.17 1.39 1.39 1.36 1.35 1.49 1.60 1.55 1.50 1.54 1.58 1.61 1.62 1.64 1.65 1.63 1.58 1.52 1.46
0.96 0.98 1.01 1.05 1.10 1.12 1.13 1.11 1.07 1.07 1.07 1.09 1.09 1.08 1.07 1.07 1.06 1.07 1.08 1.07 1.05 1.04 1.03 1.04 1.06 1.06 1.05 1.03 1.01 1.00 1.03 1.02 0.99 0.97 0.97 0.96 0.96 0.97 0.97 0.96 0.97 1.00 1.02 1.04 1.08 1.11 1.11 1.05 1.03 1.01 1.06 1.09 1.04 1.05 1.08 1.11 1.07 1.05 1.07 1.06 1.12 1.14 1.14 1.13 1.20 1.19 1.21 1.33 1.32 1.34 1.31 1.41 1.57 1.56 1.50 1.52 1.58 1.56 1.57 1.62 1.65 1.63 1.61 1.56 1.47
0.99 1.04 1.12 1.16 1.18 1.20 1.20 1.17 1.12 1.10 1.11 1.13 1.13 1.12 1.11 1.11 1.10 1.09 1.08 1.06 1.03 1.03 1.06 1.08 1.08 1.07 1.08 1.07 1.04 1.02 1.03 1.02 1.00 0.98 0.96 0.95 0.96 0.95 0.94 0.92 0.93 0.95 0.97 1.02 1.08 1.10 1.09 1.10 1.11 1.13 1.15 1.17 1.14 1.13 1.14 1.16 1.15 1.16 1.17 1.16 1.18 1.19 1.22 1.26 1.25 1.24 1.20 1.29 1.34 1.34 1.18 1.33 1.55 1.53 1.52 1.55 1.57 1.52 1.54 1.62 1.68 1.67 1.64 1.57 1.49
1.12 1.19 1.22 1.22 1.21 1.21 1.20 1.18 1.15 1.11 1.16 1.19 1.18 1.16 1.15 1.15 1.14 1.11 1.07 1.03 1.01 1.03 1.04 1.06 1.07 1.09 1.09 1.05 1.02 1.02 1.03 1.02 1.00 0.99 0.98 0.97 0.95 0.92 0.88 0.86 0.89 0.93 0.98 1.07 1.11 1.13 1.13 1.14 1.17 1.18 1.18 1.17 1.16 1.15 1.15 1.16 1.19 1.22 1.21 1.23 1.25 1.23 1.18 1.13 1.08 1.14 1.11 1.21 1.32 1.30 1.24 1.30 1.51 1.50 1.51 1.62 1.60 1.49 1.52 1.59 1.66 1.70 1.71 1.63 1.55
1.15 1.16 1.18 1.22 1.26 1.28 1.26 1.24 1.18 1.15 1.19 1.23 1.21 1.20 1.18 1.16 1.14 1.11 1.09 1.06 1.04 1.02 1.02 1.05 1.08 1.06 1.01 1.00 1.01 1.01 1.01 0.98 0.98 0.98 0.98 0.96 0.92 0.87 0.85 0.84 0.88 0.92 0.96 1.05 1.10 1.12 1.14 1.17 1.20 1.20 1.19 1.18 1.16 1.15 1.15 1.18 1.22 1.24 1.21 1.13 1.10 1.17 1.11 1.04 1.06 1.08 1.04 1.13 1.24 1.31 1.30 1.26 1.41 1.48 1.49 1.59 1.56 1.47 1.48 1.54 1.63 1.71 1.72 1.64 1.58
1.12 1.17 1.25 1.30 1.33 1.37 1.38 1.32 1.25 1.18 1.20 1.23 1.21 1.20 1.18 1.17 1.17 1.15 1.14 1.08 1.03 1.02 1.03 1.07 1.07 1.00 0.96 0.96 0.99 0.99 0.95 0.93 0.97 0.99 0.99 0.95 0.89 0.87 0.86 0.85 0.86 0.89 0.94 1.02 1.04 1.07 1.13 1.17 1.20 1.19 1.17 1.14 1.13 1.14 1.17 1.20 1.23 1.25 1.20 1.09 1.15 1.17 1.09 1.09 1.03 1.06 1.07 1.11 1.15 1.31 1.27 1.25 1.40 1.50 1.48 1.58 1.60 1.53 1.50 1.54 1.61 1.70 1.71 1.66 1.63
1.18 1.21 1.22 1.22 1.30 1.40 1.40 1.39 1.34 1.23 1.22 1.22 1.22 1.20 1.19 1.19 1.21 1.20 1.17 1.10 1.02 1.02 1.03 1.04 1.03 0.97 0.93 0.94 0.92 0.91 0.92 0.96 0.98 0.99 0.97 0.96 0.92 0.89 0.89 0.89 0.88 0.88 0.94 0.99 0.97 0.98 1.03 1.09 1.14 1.16 1.11 1.11 1.14 1.15 1.18 1.18 1.19 1.24 1.27 1.24 1.24 1.18 1.10 1.10 1.09 1.07 0.97 0.96 1.11 1.31 1.19 1.25 1.36 1.45 1.52 1.48 1.37 1.44 1.53 1.54 1.58 1.66 1.69 1.65 1.64
Wind_Speed
6 6 6 7 7 7 8 8 9 9 9 10 10 10 10 11 11 11 11 11 11 11 11 11 12 11 11 11 11 11 12 12 12 12 12 12 12 12 12 13 14 14 14 14 14 15 15 15 15 15 15 14 14 14 13 13 13 12 12 11 11 11 10 10 10 10 10 10 9 9 8 8 8 8 7 7 6 6 5 5 5 4 4 4 3
6 6 6 7 7 8 8 9 9 10 10 10 10 11 11 11 11 11 11 12 12 12 12 12 12 12 12 12 12 12 12 12 12 13 13 13 13 13 13 13 13 14 15 15 15 15 15 16 16 16 16 16 15 15 15 14 14 14 13 13 12 12 11 11 11 11 11 10 10 10 9 9 9 8 8 8 7 6 6 6 5 5 4 4 4
7 7 7 7 8 8 9 9 10 10 11 11 11 11 11 11 11 12 12 12 12 13 13 13 13 13 13 13 13 13 13 13 13 14 14 14 14 14 14 14 14 14 15 16 16 16 16 17 17 17 17 17 17 16 16 16 16 15 15 14 14 13 12 12 12 12 12 11 11 11 10 10 10 9 9 8 8 7 7 6 6 5 5 5 4
7 7 7 8 8 9 9 10 10 11 11 11 12 12 12 12 12 12 12 13 13 14 14 13 14 14 14 14 14 14 13 14 14 14 15 15 15 15 15 15 15 15 16 16 17 17 18 18 18 18 18 18 18 18 17 17 17 17 17 16 15 14 14 13 13 13 13 12 12 12 11 11 11 10 10 9 9 8 8 7 6 6 5 5 5
7 7 7 8 9 9 9 10 11 11 12 12 12 13 13 13 13 13 13 13 14 14 14 14 14 15 15 15 15 15 15 15 14 15 15 15 16 16 16 16 16 16 16 17 17 18 19 19 19 19 19 19 19 19 19 18 18 18 18 18 17 16 15 15 14 14 14 14 13 13 12 12 12 11 11 10 10 9 9 8 8 7 6 6 6
7 8 8 9 9 9 10 10 11 12 13 13 13 13 13 14 14 14 14 14 14 14 14 15 15 15 15 16 16 16 16 16 16 16 16 16 17 17 17 17 17 17 17 17 18 18 19 20 20 20 20 20 20 20 20 20 19 19 19 19 19 18 17 16 15 15 15 15 15 14 14 13 13 13 12 12 11 11 10 9 9 8 7 7 7
8 9 9 10 10 11 11 12 13 14 14 14 14 14 14 14 14 15 15 15 15 15 15 15 15 15 16 16 16 17 17 17 17 17 17 18 18 18 18 18 18 18 19 18 18 18 19 20 21 22 22 22 22 21 21 21 20 20 20 20 20 20 19 18 17 16 16 16 16 15 15 15 14 14 13 13 12 12 11 11 10 9 9 8 8
9 9 10 10 11 12 13 14 14 14 14 14 14 14 14 14 14 15 15 15 15 15 15 15 15 16 16 16 16 17 17 17 18 18 18 18 18 19 19 19 19 19 19 19 19 19 19 20 21 22 23 23 23 23 23 22 22 21 21 21 21 21 21 20 19 18 17 17 17 16 16 16 15 15 15 14 14 13 12 12 11 11 10 9 9
9 10 11 11 12 13 14 14 14 14 14 14 14 14 14 14 15 15 15 15 15 16 16 16 16 16 16 16 16 16 17 17 18 18 19 19 19 19 20 20 20 20 20 20 20 20 20 21 21 23 24 24 24 24 24 24 23 23 22 22 22 22 22 21 21 20 19 18 18 18 17 17 17 16 16 15 15 14 14 13 12 12 11 11 10
10 10 11 12 13 13 13 13 14 14 14 14 14 14 14 14 15 15 15 16 16 16 16 17 17 16 16 16 16 16 17 17 17 18 19 19 19 20 20 21 21 21 21 21 21 21 21 21 22 23 24 25 26 26 26 26 25 25 24 24 23 23 23 23 22 22 21 20 19 19 18 18 18 18 17 17 16 15 15 14 14 13 13 12 11
10 11 11 12 13 13 13 13 14 14 14 15 15 15 15 15 15 16 16 16 16 16 17 17 17 16 16 16 16 17 17 17 17 17 18 19 20 20 21 21 22 22 22 22 22 23 23 23 22 23 24 25 26 27 27 27 27 26 26 25 25 24 24 24 23 23 23 22 21 20 20 19 19 19 19 18 17 17 16 16 15 14 14 13 13
10 11 11 12 13 13 13 13 14 14 15 15 15 15 15 15 15 16 16 16 16 16 16 16 17 17 17 17 17 17 17 16 16 17 18 19 19 20 20 21 22 22 23 23 24 24 24 24 24 24 24 25 26 27 28 28 28 28 28 27 27 26 26 25 25 24 24 23 23 22 21 21 20 20 20 19 19 18 18 17 16 16 15 15 14
11 11 12 12 13 13 13 14 14 15 15 15 15 15 15 15 16 16 16 16 17 16 16 16 17 17 17 17 17 17 16 16 16 16 16 17 18 19 19 20 21 22 23 24 24 25 25 26 26 25 25 25 25 27 28 29 29 29 29 29 28 28 27 27 26 26 25 25 24 23 23 22 22 22 21 21 20 20 19 18 18 17 17 16 15
11 12 12 13 13 13 14 15 15 16 15 15 15 16 15 15 16 16 16 16 16 16 16 16 16 16 17 17 17 17 16 15 15 14 15 15 16 18 19 20 21 22 23 23 24 25 26 26 27 27 27 26 26 26 28 29 30 30 31 30 30 30 29 29 28 27 27 26 25 25 24 24 23 23 23 22 22 21 20 20 19 19 18 17 16
11 12 12 13 13 14 14 15 15 15 15 15 16 16 15 15 15 15 15 15 16 16 16 16 16 16 17 16 16 17 16 15 15 15 15 16 16 17 18 19 20 21 22 22 23 24 25 26 27 28 28 28 28 28 28 29 30 30 31 32 32 31 31 30 30 29 29 28 27 26 26 25 25 24 24 23 23 22 22 21 21 20 19 18 18
11 12 12 13 13 14 14 14 15 15 15 15 15 15 15 15 14 14 15 15 15 16 16 16 16 16 16 16 16 16 16 16 17 17 16 15 16 16 17 18 19 20 21 22 23 23 24 25 27 28 29 29 29 29 29 30 30 30 31 32 32 32 32 32 32 31 30 30 29 28 27 27 26 26 25 25 24 24 23 23 22 21 21 20 19
11 12 12 13 13 13 14 14 15 15 15 15 15 15 15 15 14 14 15 15 15 16 16 16 16 16 16 16 16 16 16 17 18 18 17 17 17 17 17 18 19 20 21 22 23 23 24 24 26 27 29 30 30 31 31 31 31 30 31 31 33 33 34 34 34 33 32 31 31 30 29 29 28 27 26 26 25 25 24 24 23 23 22 21 21
12 13 13 13 13 13 14 14 15 15 15 15 16 16 16 15 15 15 15 15 16 16 17 17 17 17 17 17 17 17 17 18 18 18 18 19 18 18 18 18 19 20 21 22 23 24 24 24 25 27 28 29 30 31 32 32 32 31 31 31 32 34 35 35 35 35 34 33 32 32 31 31 30 29 28 27 27 26 26 25 25 24 23 23 22
13 13 13 13 14 14 15 15 15 15 16 16 16 16 16 16 16 16 16 16 16 17 17 18 17 17 17 17 18 18 18 18 18 18 19 19 19 19 19 19 20 20 21 22 22 23 24 25 25 26 28 29 29 30 31 32 32 32 32 32 33 34 35 36 36 36 35 35 34 33 33 32 32 31 30 29 28 28 27 26 26 25 25 24 23
13 14 14 14 14 14 15 15 15 16 16 16 17 16 16 16 16 16 16 16 17 17 18 18 18 18 18 18 18 19 19 19 19 19 19 19 20 20 20 20 21 21 21 21 22 23 24 25 26 26 27 29 30 30 30 31 32 33 33 33 33 34 34 35 36 36 36 36 35 35 34 34 33 33 32 31 30 29 29 28 27 26 26 25 24
14 14 15 15 15 15 15 15 16 16 17 17 17 17 17 17 17 17 17 17 17 18 18 18 18 18 19 19 19 19 19 19 19 19 19 19 20 20 21 21 21 21 22 22 22 23 24 25 26 27 27 28 30 31 31 31 32 33 33 34 34 35 35 35 36 37 37 37 36 36 35 35 34 34 34 33 32 31 30 29 29 28 27 26 25
15 15 15 15 15 15 15 15 16 17 17 17 17 17 18 18 18 18 18 18 18 18 19 19 19 19 19 19 19 20 20 20 19 20 20 20 20 21 21 21 21 22 22 22 23 23 23 24 25 27 28 28 29 30 31 32 32 32 33 34 35 35 36 36 36 37 37 37 37 37 37 36 36 36 35 35 34 33 32 31 30 29 29 28 27
15 15 15 15 15 15 16 16 17 17 17 17 17 18 18 18 18 18 18 19 19 19 19 19 19 19 20 20 20 20 20 20 20 20 20 20 21 21 22 21 21 22 22 22 22 23 23 24 25 26 27 28 29 30 31 32 32 33 33 34 35 35 36 37 37 38 38 38 38 38 38 37 37 37 37 36 36 35 34 33 32 31 30 29 29
15 15 15 15 15 16 16 17 17 17 17 18 18 18 18 18 18 18 19 19 19 19 19 20 20 20 20 20 20 20 20 20 21 21 21 21 21 22 22 22 21 21 22 22 22 22 22 24 24 25 26 28 29 30 31 32 33 33 34 35 36 37 37 37 38 38 39 39 39 39 39 38 38 38 38 37 37 37 36 35 34 33 32 31 30
16 15 15 16 16 17 17 17 17 18 18 18 18 18 19 19 19 19 19 20 19 20 20 20 20 20 20 20 20 20 21 21 21 21 22 22 22 22 22 22 21 21 22 21 21 21 22 22 24 25 26 27 29 30 31 32 33 34 35 36 37 38 38 38 38 39 39 39 39 40 40 39 39 39 39 39 38 38 37 37 36 35 34 33 32
16 16 16 16 16 16 16 17 18 18 18 18 18 19 19 19 19 20 20 20 20 20 20 20 20 21 21 21 21 21 21 21 21 22 22 22 22 22 22 22 21 21 21 20 21 21 21 22 23 25 26 27 29 30 31 32 32 33 34 35 37 38 39 39 39 39 39 40 40 41 41 41 40 40 40 40 39 39 38 38 38 37 35 35 34
16 16 16 16 16 17 17 18 18 18 19 19 19 19 19 19 20 20 20 20 20 20 21 21 21 21 21 22 22 22 22 22 22 22 22 22 22 22 22 22 21 20 20 20 20 21 22 23 23 24 25 27 29 30 31 32 33 34 35 35 36 38 39 40 40 40 40 40 40 41 41 41 41 41 41 40 40 40 39 39 39 38 37 36 35
17 17 17 17 17 17 17 18 18 18 19 19 19 20 20 20 20 20 20 20 20 21 21 21 22 22 22 22 22 22 23 23 23 22 22 22 23 22 22 22 22 21 21 20 20 21 22 23 23 24 25 27 29 31 32 33 34 35 36 36 36 37 38 39 40 41 41 41 41 41 42 42 41 41 41 41 41 41 40 40 40 39 39 38 37
17 17 17 18 17 17 18 18 19 19 19 19 20 20 20 20 20 20 21 21 21 21 21 22 22 22 23 23 23 23 23 23 23 23 23 23 22 22 22 22 22 22 22 21 22 22 23 23 24 25 26 27 29 31 32 33 34 36 37 37 37 37 38 38 39 40 41 41 41 42 42 42 42 42 42 42 42 41 41 41 41 40 40 39 39
17 17 18 18 17 18 18 19 19 19 19 20 20 21 21 21 21 21 21 21 21 22 22 22 22 23 23 23 23 23 23 23 23 23 23 23 22 22 22 22 22 22 23 23 23 23 24 25 25 26 28 28 29 30 32 33 35 36 37 37 38 38 38 39 39 39 40 41 41 42 42 42 42 42 42 42 42 42 42 42 41 41 41 40 40
17 17 18 18 18 18 18 19 19 19 20 20 21 21 21 21 21 21 21 21 21 22 23 23 23 23 23 23 24 23 23 23 23 23 23 22 22 22 22 22 23 23 23 24 24 24 25 26 26 27 28 29 29 30 32 33 34 36 37 37 38 38 39 39 40 40 40 40 41 42 42 42 42 41 41 42 42 42 42 42 42 41 41 41 41
18 18 18 18 19 19 19 19 20 20 20 21 21 21 21 21 21 21 21 21 22 23 23 23 23 23 24 24 24 24 23 23 24 24 24 23 22 22 22 23 23 24 24 24 25 25 26 27 27 28 29 30 30 30 31 32 33 35 36 37 38 39 39 39 40 40 40 40 41 42 42 42 42 41 41 41 42 42 42 42 42 41 41 41 41
18 19 19 19 19 19 19 20 20 21 21 21 21 22 22 22 22 22 22 22 23 23 23 23 23 23 24 24 24 24 23 24 24 24 24 23 23 23 23 23 24 24 24 25 26 26 27 27 28 29 30 31 31 31 32 32 33 34 36 37 38 38 39 39 40 40 40 40 41 41 42 42 42 41 41 41 41 42 42 42 42 41 41 42 42
19 19 20 20 20 20 20 20 21 21 21 22 22 22 22 22 22 22 22 23 23 23 23 23 23 24 24 24 24 24 24 24 24 24 24 24 24 24 24 24 24 24 25 25 26 27 27 28 28 29 30 31 31 31 32 32 33 34 35 36 38 38 39 39 40 40 40 40 41 41 41 41 42 42 41 41 41 41 41 41 41 41 41 41 41
19 20 20 20 20 20 20 20 21 21 22 22 22 22 22 22 23 23 23 23 23 23 23 23 24 24 24 24 24 24 24 24 25 24 24 24 24 24 24 24 24 25 25 25 26 27 28 28 29 30 30 31 31 32 32 32 33 34 35 35 37 38 38 39 40 40 40 40 41 41 41 41 41 42 42 41 40 40 41 41 41 40 40 40 41
21 21 21 20 20 20 20 21 21 22 22 22 22 22 22 23 23 23 23 23 23 23 23 23 24 24 24 24 24 24 24 24 24 24 23 23 24 24 24 24 24 25 25 25 26 26 28 29 29 30 31 31 31 31 32 32 32 33 34 35 36 38 38 39 39 40 41 41 41 42 42 42 41 42 42 41 40 40 40 41 40 40 40 40 40
21 20 20 20 20 21 21 21 22 22 22 22 22 22 23 23 23 23 22 23 23 23 23 23 23 24 24 24 24 24 24 24 24 23 23 24 24 24 25 25 25 25 25 26 26 26 27 29 29 30 30 30 30 30 31 31 31 31 33 34 36 37 38 38 39 40 41 41 41 42 42 42 42 42 42 42 41 41 40 40 40 40 40 40 40
20 20 20 20 21 21 22 22 22 22 22 22 23 23 23 23 23 23 22 23 23 23 23 23 23 23 24 24 24 24 24 24 23 23 23 24 24 24 24 24 25 25 25 25 26 26 27 28 29 30 29 30 30 30 29 30 31 31 32 33 35 36 37 38 39 39 40 41 41 41 42 43 42 42 42 42 42 41 41 41 40 40 40 40 40
20 20 21 21 22 22 22 23 23 24 24 24 24 24 23 23 23 23 23 23 23 23 22 22 23 23 24 24 24 24 23 23 23 23 23 24 24 23 23 24 25 24 25 25 26 27 27 28 29 29 29 29 29 29 28 28 30 30 31 32 33 35 36 37 38 39 39 40 41 42 42 43 43 42 42 42 42 42 41 41 41 41 40 39 39
20 21 22 22 22 23 23 23 24 24 24 24 23 23 23 22 22 23 23 22 22 22 22 22 23 24 24 24 24 24 23 23 24 24 24 24 24 23 23 24 24 25 25 26 26 27 27 28 29 29 28 29 29 28 27 27 28 29 29 30 32 34 36 37 38 39 39 40 41 41 42 42 42 42 42 42 43 42 42 41 41 41 41 40 39
21 22 22 22 22 23 24 24 24 24 24 24 23 22 22 22 22 22 22 22 22 22 22 22 23 24 24 24 24 24 24 24 24 25 25 24 24 24 24 24 25 25 25 26 26 27 27 28 28 28 28 28 28 27 26 26 27 29 30 30 32 34 35 37 38 39 39 40 40 41 42 42 42 41 41 42 42 42 41 41 41 41 41 40 39
22 22 23 23 23 24 24 25 25 24 24 24 23 22 22 22 22 22 22 22 22 22 22 23 24 24 24 24 24 24 24 25 25 25 25 24 24 24 24 24 25 25 26 26 26 27 27 27 27 27 28 28 28 27 26 26 26 28 29 30 31 32 34 36 37 38 39 40 40 41 42 42 42 41 41 41 41 41 40 40 40 40 40 40 40
22 22 23 23 24 24 25 25 25 25 25 25 24 23 23 23 23 23 23 23 23 23 23 23 24 25 24 24 24 24 25 25 25 25 24 24 24 24 24 25 25 25 26 26 27 27 27 27 27 27 27 28 28 28 27 27 27 27 29 30 31 32 33 35 36 37 38 39 40 41 42 42 42 42 42 42 41 41 39 39 39 40 40 40 40
23 22 23 24 25 25 25 26 26 25 25 25 24 24 23 24 24 23 23 23 23 23 24 24 25 25 24 24 24 24 25 25 24 24 24 24 24 24 24 25 25 26 26 27 27 27 27 27 27 27 27 28 29 28 28 28 28 28 29 30 31 32 34 35 36 37 38 38 39 41 41 41 42 43 42 42 42 41 40 39 39 40 40 40 40
23 24 24 25 26 26 26 26 25 25 26 26 25 24 24 24 24 23 23 23 24 24 24 25 25 25 25 25 25 25 24 24 24 24 24 24 24 24 24 25 25 25 26 27 27 27 27 26 26 27 27 28 28 28 29 29 29 29 29 30 32 33 34 35 37 38 39 39 40 40 41 41 42 42 42 42 42 42 40 39 39 39 39 40 40
24 25 26 26 26 26 26 26 26 26 27 27 26 25 24 23 23 23 23 24 24 25 25 25 25 25 25 25 25 25 24 24 24 24 24 24 24 24 24 25 25 25 26 26 26 26 26 26 26 27 28 28 29 29 29 29 29 29 30 31 32 34 35 36 37 39 40 41 41 40 41 41 41 41 42 41 41 41 41 39 38 38 38 39 39
26 26 27 27 27 27 27 26 27 27 27 26 25 24 23 23 23 23 24 25 25 25 25 25 25 25 26 26 25 25 24 24 24 25 25 24 24 24 24 25 25 25 25 26 26 26 25 25 26 27 28 29 29 30 30 30 30 29 30 31 32 33 35 36 37 39 41 42 42 41 41 41 41 41 41 40 40 41 41 40 39 38 38 38 38
27 27 28 29 29 29 28 27 27 27 27 25 24 23 23 23 23 23 24 26 26 26 25 25 24 25 26 26 26 25 24 24 24 25 25 24 24 24 25 25 25 25 25 25 26 26 26 26 27 28 28 29 30 31 31 31 31 30 30 31 32 32 34 35 36 38 40 41 42 42 41 41 41 41 40 39 40 40 40 40 39 38 38 38 38
28 29 30 30 31 30 29 27 27 27 27 26 24 23 23 23 23 24 25 26 26 26 25 24 24 25 25 25 25 24 24 24 24 24 24 24 24 24 25 25 25 25 25 26 26 27 27 27 27 28 29 29 31 32 32 32 31 29 29 31 31 32 33 33 34 36 39 41 42 42 42 41 41 41 39 39 40 40 40 39 39 38 38 37 37
29 30 30 31 32 32 30 28 28 28 28 26 25 24 24 24 24 25 26 26 26 26 25 24 24 24 25 25 25 25 25 24 24 24 24 24 24 25 25 25 24 25 25 26 27 27 27 27 28 28 29 30 31 33 33 32 30 29 28 29 31 31 32 33 33 34 37 41 42 42 42 41 41 40 39 38 39 39 39 39 38 37 37 37 36
29 29 30 30 31 31 30 30 30 30 29 27 25 24 24 24 24 25 25 26 26 26 25 25 25 24 24 25 25 25 25 24 24 24 24 24 25 25 24 24 24 24 25 26 27 27 27 27 28 28 29 30 31 32 32 31 29 27 27 28 29 31 32 32 33 34 36 39 41 41 41 40 40 40 39 38 37 37 38 38 37 37 36 36 36
Wind_Direction
320 319 320 322 321 320 321 321 321 320 319 317 315 314 314 312 311 310 309 307 304 302 300 299 297 295 293 291 287 283 280 277 275 272 267 264 262 261 259 256 253 249 247 245 243 241 238 236 234 234 234 233 232 232 229 226 226 228 227 225 223 221 221 220 218 216 216 217 219 221 223 219 215 212 211 210 210 210 211 211 211 211 210 208 208
316 317 320 322 321 321 323 323 322 321 319 318 316 315 315 313 311 310 309 308 305 303 300 298 297 294 292 290 288 285 280 277 274 272 268 263 261 260 259 257 254 251 248 246 243 242 239 236 234 234 235 234 233 233 232 229 227 228 229 227 225 224 223 222 221 219 218 218 219 221 224 221 217 214 213 213 212 212 212 213 213 213 213 213 214
312 315 318 322 323 323 323 323 323 321 319 318 317 315 315 315 313 311 309 308 306 303 300 298 296 294 292 290 288 286 282 277 273 271 269 264 261 261 259 257 256 253 250 247 244 242 241 238 237 235 235 234 234 234 233 232 229 229 229 229 228 226 225 224 223 222 220 219 219 221 223 222 218 216 215 215 214 213 213 214 215 215 215 216 217
311 312 315 322 324 324 322 322 322 321 320 318 316 314 313 314 313 311 309 307 306 304 301 297 295 293 291 290 287 285 282 278 274 271 269 265 261 260 259 257 257 255 252 249 246 244 242 240 239 237 236 234 233 234 234 233 231 230 230 230 229 228 227 225 225 224 223 221 221 221 222 222 220 218 217 217 216 215 215 216 217 218 218 219 221
309 311 314 320 322 322 322 322 322 321 320 317 315 314 313 313 313 312 310 308 306 304 302 299 295 293 291 289 287 284 282 279 276 272 269 266 263 261 259 257 257 256 254 251 249 246 244 241 241 240 238 236 234 234 233 233 233 231 230 230 230 230 228 227 226 226 225 224 223 222 222 223 222 220 219 219 218 218 218 218 219 220 220 221 223
310 312 314 318 319 320 321 321 321 320 319 317 315 313 313 312 312 311 310 309 307 306 305 301 298 294 292 290 287 285 283 280 277 273 269 266 265 263 260 258 257 256 254 253 252 250 247 243 241 241 240 238 237 235 234 234 233 233 231 231 231 230 230 229 228 227 226 226 225 224 224 224 223 222 221 220 220 220 221 221 222 223 222 223 225
309 310 311 314 317 319 320 318 318 318 317 316 314 313 313 313 312 311 310 310 309 308 308 305 301 297 294 291 287 285 283 280 278 275 270 267 266 264 261 259 258 256 254 253 253 252 249 245 242 242 241 240 239 238 236 235 234 234 233 232 231 231 231 230 229 228 227 227 227 226 226 225 224 224 223 223 222 222 223 224 225 225 225 226 226
304 304 306 310 314 316 316 315 315 317 316 315 314 313 313 313 312 311 311 311 310 310 311 309 306 301 298 293 289 286 283 281 278 276 272 269 266 264 262 260 258 257 255 254 253 252 250 248 245 243 242 241 240 239 238 237 236 235 234 233 232 232 232 231 230 229 228 228 227 227 227 226 225 224 224 224 224 224 225 225 227 228 228 228 228
303 302 304 307 309 311 311 311 312 314 315 315 314 314 313 313 312 313 313 312 311 311 311 311 309 306 303 298 293 290 286 283 279 276 273 270 267 265 263 261 259 257 256 255 253 253 252 250 248 246 243 242 241 240 239 238 238 237 235 234 234 233 232 232 232 231 230 229 228 228 228 227 226 225 224 225 226 226 226 226 227 228 229 229 229
305 303 304 304 304 306 307 309 311 312 313 314 314 313 313 311 311 312 312 311 310 310 311 310 309 307 305 301 298 296 292 287 281 276 273 271 269 266 263 261 259 257 256 255 254 254 254 252 251 249 246 243 242 241 240 239 238 238 237 236 235 234 233 233 233 232 231 230 229 229 229 228 227 226 225 225 226 227 227 227 227 228 229 230 230
307 305 304 304 304 306 307 309 311 312 313 314 313 313 313 312 311 311 311 310 308 308 310 309 308 308 306 303 302 299 296 291 285 278 274 271 269 267 264 262 259 257 256 256 255 254 254 253 252 251 249 246 244 242 240 240 239 238 237 236 235 235 234 234 233 233 233 232 231 230 230 230 229 228 227 227 227 228 228 228 228 228 229 231 232
311 309 308 308 308 309 309 310 311 313 313 313 313 312 312 312 311 311 311 310 309 308 309 309 309 308 307 306 305 303 299 296 291 285 278 274 270 268 265 263 261 259 257 256 256 255 254 253 252 251 250 249 247 244 241 240 239 239 238 237 236 235 235 234 234 234 234 234 233 232 231 231 230 230 229 229 228 229 229 229 230 230 230 231 232
313 312 311 312 313 312 311 312 313 313 313 312 312 312 312 312 312 312 311 311 310 310 310 309 309 309 309 308 307 305 302 298 295 291 285 278 273 270 268 265 263 261 260 259 257 256 255 253 251 251 251 250 248 245 242 240 240 239 239 238 237 236 235 235 235 234 234 234 234 233 233 232 231 231 230 230 230 230 230 230 231 231 232 232 233
312 311 311 313 313 313 312 313 314 314 314 313 313 313 312 312 313 313 313 312 311 312 312 311 310 310 310 309 309 307 305 302 298 295 291 285 279 274 271 268 265 264 262 261 260 257 255 254 252 251 250 249 248 246 243 241 240 239 239 238 238 237 236 236 235 235 235 235 235 234 234 233 233 232 232 231 231 231 231 231 232 232 233 233 234
311 310 311 311 311 311 312 313 314 315 316 316 315 315 314 313 313 313 313 313 313 313 313 311 310 310 311 311 311 309 308 306 303 299 295 290 284 279 275 271 268 266 264 263 261 259 256 254 253 251 250 249 248 247 245 242 240 240 239 238 238 238 237 236 236 235 235 235 235 235 235 234 234 233 233 232 232 232 232 232 232 233 233 234 235
312 312 312 311 311 311 313 315 316 317 317 317 317 316 316 315 314 313 313 313 313 313 312 311 310 311 311 310 310 309 307 307 305 302 297 292 288 284 280 276 272 269 266 265 263 261 259 256 254 253 251 249 248 248 247 245 243 241 240 239 239 239 238 237 237 236 236 235 235 235 235 235 235 234 234 233 233 233 233 233 233 234 234 234 235
315 315 314 313 313 313 315 316 317 317 318 318 317 317 317 316 314 313 313 312 312 311 311 311 310 309 309 308 309 308 305 306 305 301 298 295 292 287 283 279 276 272 269 267 264 262 260 258 255 254 252 250 249 248 248 248 246 243 242 241 240 239 239 238 237 236 236 236 235 235 235 235 235 235 234 234 234 234 234 234 234 234 235 235 235
316 316 316 316 315 314 316 317 317 317 318 318 317 317 316 315 314 313 312 311 311 311 310 311 310 308 307 307 307 306 305 306 305 301 298 296 293 290 287 284 281 276 272 268 265 263 261 260 257 255 253 252 250 249 248 249 248 247 244 242 241 240 239 238 237 236 236 236 236 236 236 235 235 235 235 235 234 234 234 234 235 235 235 235 236
315 316 315 314 313 314 315 316 316 317 317 317 317 316 315 314 314 313 313 312 312 311 310 310 310 309 307 306 305 305 305 305 304 302 300 297 294 292 289 286 284 281 276 272 268 264 262 260 259 257 255 253 252 250 249 248 248 248 246 244 242 241 240 239 238 237 237 236 235 236 236 235 235 235 235 235 235 235 234 235 235 235 236 236 236
317 316 315 313 312 313 314 316 316 316 316 316 316 315 315 314 314 313 313 313 312 311 311 311 310 309 308 307 306 306 305 304 303 302 301 298 296 294 290 287 286 283 279 275 271 267 264 261 259 257 256 254 253 251 249 249 248 247 246 244 243 242 241 240 238 238 237 236 236 235 235 235 235 235 235 235 235 235 235 235 235 235 235 236 236
318 316 315 314 313 314 315 316 316 316 316 315 314 314 315 314 313 312 312 312 312 311 311 311 310 309 308 307 307 307 306 305 303 302 300 298 296 295 293 291 288 284 281 278 275 271 267 264 261 258 256 255 253 251 250 249 248 247 246 244 243 242 242 240 239 238 237 236 236 236 235 235 235 235 235 236 235 235 235 235 235 235 235 235 236
317 316 315 314 314 315 315 315 315 316 316 315 314 313 313 313 312 311 311 311 311 311 311 311 310 309 308 308 307 307 306 305 304 302 300 298 296 295 294 293 289 286 284 280 277 274 271 268 264 261 258 255 254 252 250 250 249 248 246 244 243 242 241 241 239 238 237 236 236 236 236 235 235 235 235 235 235 235 235 235 235 235 235 235 235
316 316 314 313 314 314 314 314 314 314 315 315 314 312 312 312 312 311 311 311 311 311 311 311 310 310 310 309 308 307 306 305 304 303 301 300 298 295 294 293 289 286 285 284 280 276 272 269 266 263 259 257 255 253 251 250 249 248 246 244 243 242 241 241 240 238 237 237 237 236 236 236 236 235 235 235 235 236 235 235 235 235 235 235 236
316 315 313 312 313 313 313 314 314 314 314 313 313 312 311 311 311 311 311 311 311 311 310 310 310 310 310 310 310 308 307 305 304 303 302 301 300 297 295 293 290 286 286 286 283 279 275 271 268 265 262 259 256 254 252 251 250 249 248 245 243 242 241 241 240 239 238 238 238 237 237 236 236 236 236 235 235 235 236 235 235 235 236 236 236
315 313 312 311 311 312 312 313 313 314 313 312 312 311 310 310 311 311 311 311 310 310 310 310 310 310 310 310 309 309 307 306 305 303 302 302 301 299 295 294 291 287 286 286 285 283 280 275 271 268 265 261 258 256 253 252 250 250 248 246 245 243 242 241 241 240 239 238 238 238 237 237 236 236 236 235 235 236 236 236 236 236 236 237 237
314 312 312 312 312 312 312 313 313 313 312 312 311 310 310 310 310 311 311 310 310 309 310 310 310 309 310 309 309 308 308 307 306 304 303 302 301 299 297 295 292 288 286 285 286 285 282 280 277 272 268 264 261 257 255 253 251 250 249 247 246 244 243 242 241 240 239 239 238 238 237 237 236 236 236 235 235 235 236 236 236 236 236 237 238
315 313 313 313 313 313 313 313 313 312 311 311 310 310 310 310 310 310 310 310 309 309 309 309 309 309 309 309 308 308 307 307 306 305 304 303 302 299 297 295 292 289 286 285 285 285 283 283 281 277 272 268 264 261 257 255 252 250 249 248 246 245 243 242 241 240 239 239 239 238 237 237 237 236 236 235 235 235 235 236 236 236 237 237 238
316 315 314 314 314 314 313 313 312 311 311 311 310 310 310 310 310 310 309 309 309 308 308 308 309 309 309 308 308 308 307 307 306 306 305 303 302 299 297 294 291 288 285 284 285 284 284 285 283 281 277 272 268 265 261 258 254 252 250 249 247 245 243 243 242 240 240 239 239 238 237 237 237 237 236 235 235 235 235 236 236 237 237 237 237
317 316 314 314 314 314 314 313 311 311 311 311 311 310 310 309 309 309 309 308 308 308 308 308 308 309 309 309 308 308 307 307 306 305 304 303 302 300 298 294 291 287 283 282 284 284 285 286 284 282 281 277 272 269 265 260 257 254 251 249 247 245 243 242 242 241 240 239 238 237 236 236 237 237 236 236 236 236 235 236 236 236 237 237 237
317 316 315 314 314 314 314 313 312 312 312 312 311 310 309 309 309 308 308 308 308 308 308 308 308 308 309 308 308 308 307 307 306 305 304 304 302 300 298 296 292 288 283 281 282 284 285 287 285 283 283 281 275 270 266 263 259 256 252 249 247 245 243 242 242 241 240 239 238 237 236 236 236 236 236 236 236 236 236 236 236 236 237 237 237
316 315 314 313 313 313 313 312 313 314 314 313 312 311 310 309 308 308 308 307 307 308 308 307 308 308 308 308 308 307 306 306 306 305 304 304 303 301 299 298 295 291 288 283 281 283 286 287 287 285 284 282 278 272 266 263 261 257 253 249 247 245 244 242 241 240 240 239 238 236 236 236 236 236 236 236 236 236 236 236 236 236 236 237 237
315 315 314 313 312 311 311 312 313 314 314 313 312 312 311 310 308 307 307 307 307 308 308 308 308 307 308 308 308 307 306 306 305 304 303 302 302 301 300 299 298 295 292 288 284 284 286 287 288 288 286 283 280 275 268 263 261 258 254 249 246 245 244 243 241 240 239 239 237 236 235 235 236 236 236 236 236 235 235 235 236 236 236 237 237
314 313 312 311 309 309 310 311 311 312 312 311 311 312 312 311 309 307 307 307 307 308 308 308 308 308 308 308 308 308 306 305 305 303 302 300 300 300 300 299 298 297 294 291 288 286 287 289 290 290 288 285 282 278 272 265 261 259 255 250 246 244 243 242 241 240 239 238 237 235 234 234 235 235 236 236 236 235 235 235 235 236 236 236 237
312 311 310 309 308 307 308 308 309 310 309 309 310 312 312 312 310 308 307 307 307 308 308 308 308 308 308 308 308 308 307 306 305 302 300 299 298 299 299 298 298 299 297 294 291 289 288 289 292 292 290 287 283 279 274 267 262 259 255 251 246 243 242 241 240 239 239 238 237 235 234 234 234 235 235 235 235 234 234 234 235 235 236 236 236
311 310 309 307 307 306 306 306 306 307 308 309 310 311 311 312 311 309 308 307 307 307 307 307 308 309 308 308 308 308 307 306 305 303 300 298 298 297 297 297 298 300 300 297 294 292 291 291 293 294 292 289 285 281 276 268 262 259 255 251 246 243 241 240 239 239 238 237 236 235 234 234 234 234 234 235 234 234 233 233 234 235 236 236 237
309 308 307 306 306 306 306 306 306 307 308 308 309 310 310 311 311 310 308 308 307 307 308 308 308 309 309 309 309 308 308 306 305 303 300 299 298 297 296 296 297 299 301 299 297 295 294 294 295 296 294 291 287 283 277 269 263 259 255 251 246 244 241 240 239 238 237 237 236 235 234 234 234 234 234 234 234 234 233 233 234 235 236 237 237
307 307 307 307 307 307 307 307 308 308 308 308 308 308 309 310 311 310 309 308 307 308 309 308 309 310 310 309 309 308 307 307 305 303 301 299 298 296 295 295 296 298 299 299 298 298 297 297 298 298 297 294 290 286 279 271 264 260 256 252 247 244 242 240 239 237 237 236 235 234 234 234 233 234 234 233 234 234 233 233 234 235 236 236 237
306 307 308 308 308 308 308 308 309 309 309 309 308 308 308 309 309 309 308 307 307 308 309 308 308 310 310 309 308 307 307 306 306 305 302 300 299 297 295 295 296 298 299 299 299 299 298 299 300 300 300 297 294 289 281 272 266 261 257 253 249 245 242 241 239 237 236 236 235 234 233 233 233 234 234 233 233 233 233 233 234 235 235 236 236
305 307 308 308 307 307 308 308 309 310 310 309 308 308 307 307 308 308 307 306 306 307 308 307 307 308 309 309 307 306 306 306 306 306 304 302 300 298 296 296 297 298 299 300 300 300 300 301 302 302 301 300 297 292 284 274 267 263 259 255 250 246 243 241 239 237 236 235 234 234 233 232 232 233 233 233 233 233 233 233 234 235 235 236 236
304 306 307 307 307 307 309 309 310 310 310 309 308 307 306 306 307 306 306 305 304 305 306 306 306 307 309 308 307 306 306 306 306 306 304 303 301 299 297 297 298 298 299 300 300 301 301 302 303 303 303 302 300 295 288 277 268 264 261 256 251 248 245 242 240 237 236 235 234 233 233 232 232 232 233 233 233 233 233 234 235 235 235 236 237
303 305 306 306 306 307 308 309 310 310 309 309 307 306 306 306 306 305 305 304 303 304 304 305 306 307 308 308 307 305 305 305 305 305 303 302 301 299 298 298 298 299 299 300 300 301 302 303 304 304 304 304 303 298 292 282 271 265 263 259 253 249 246 244 241 238 236 235 234 233 232 231 231 232 232 232 232 232 233 234 235 235 235 235 236
302 304 305 306 306 307 308 308 309 309 309 309 307 305 304 305 305 305 305 303 303 303 302 303 305 307 308 307 306 305 304 304 305 304 302 301 300 299 298 299 299 299 300 300 300 301 302 303 304 304 304 304 303 299 293 286 276 267 262 260 255 251 247 244 241 238 236 234 234 233 232 231 231 231 231 230 230 231 233 233 234 234 235 235 236
301 303 305 306 306 307 307 307 308 308 308 307 305 303 302 302 303 304 303 302 302 302 301 302 304 306 307 306 306 305 305 305 305 304 303 301 300 299 299 298 299 299 300 300 301 301 302 303 304 305 304 303 302 298 293 288 281 271 263 259 256 253 248 244 241 238 235 234 234 233 232 230 230 231 230 229 229 230 232 233 234 234 234 235 235
301 302 303 305 306 307 307 307 307 307 308 306 303 301 300 299 300 301 302 302 302 302 301 300 302 304 305 305 305 305 305 305 305 304 303 302 301 300 300 299 299 300 300 300 301 302 303 304 305 305 305 304 302 300 295 289 283 275 266 259 255 253 250 245 241 238 235 234 234 233 231 230 229 230 230 229 229 230 232 233 234 234 234 234 234
299 301 302 303 305 305 306 306 306 307 307 306 302 300 299 297 297 299 300 301 303 302 301 300 301 302 304 304 304 304 304 304 304 304 303 302 301 301 301 301 301 301 301 301 301 301 302 304 304 305 306 305 303 302 299 293 284 276 268 260 255 252 250 247 243 239 235 234 234 233 231 229 229 229 230 229 229 230 232 233 234 234 234 233 234
298 299 301 302 303 304 305 305 305 306 307 304 300 297 296 296 296 298 300 302 303 303 302 300 299 300 302 304 303 303 303 303 304 304 303 302 301 301 301 302 302 302 303 303 303 302 302 304 304 305 306 306 304 303 302 298 288 278 270 263 257 253 250 248 245 241 236 233 233 233 231 229 228 229 229 229 229 230 231 232 233 234 234 233 233
297 299 300 300 301 302 303 303 304 306 306 304 300 296 295 295 295 296 300 303 304 304 303 300 298 298 301 302 303 302 302 302 303 304 303 302 301 301 302 302 303 304 304 305 305 305 304 305 305 306 308 307 306 305 304 300 292 281 271 265 259 255 252 249 245 241 236 233 231 232 231 229 228 228 228 228 228 229 229 231 232 233 233 233 232
297 299 299 300 300 300 300 301 302 304 305 303 300 297 295 295 295 296 299 302 303 303 303 300 298 298 300 302 302 302 301 302 302 302 302 302 301 301 302 303 303 304 304 305 306 305 304 304 306 308 309 308 307 307 306 302 295 284 273 264 260 256 252 248 244 240 236 232 230 229 229 228 228 228 228 228 228 229 229 230 231 232 233 232 232
298 299 299 299 299 299 298 298 301 303 304 301 297 295 295 295 296 297 298 300 301 301 301 300 299 299 300 301 301 301 301 301 301 301 301 302 301 302 303 303 304 303 304 306 307 305 304 304 305 308 309 309 309 310 309 304 296 287 274 264 259 256 251 246 242 238 235 232 229 228 228 227 226 227 227 228 229 229 228 229 230 231 232 232 232
298 299 299 299 298 297 295 296 299 302 302 299 294 293 294 296 297 298 298 298 300 300 300 300 300 300 301 301 301 301 301 300 300 300 301 301 301 302 303 304 304 304 305 308 308 307 306 305 306 308 310 310 311 312 311 306 298 289 276 265 259 256 251 245 241 237 234 232 229 226 226 226 225 225 225 226 228 228 227 228 229 230 231 231 231
297 299 300 300 300 298 294 293 296 299 298 296 293 291 292 295 298 298 297 297 299 299 299 300 300 300 301 302 302 301 300 300 299 300 300 300 301 303 304 304 303 304 306 309 309 309 308 308 308 309 311 312 314 315 313 309 302 292 280 269 261 257 252 246 240 235 231 230 228 225 224 224 223 223 223 224 226 227 227 228 229 230 230 230 230